Regional Weather Roundup
Issued by NWS

Home | Current Version | Previous Version | Graphics & Text | Print | Product List | Glossary On
Versions: 1 2 3 4 5 6 7 8 9 10 11 12 13 14 15 16 17 18 19 20 21 22 23 24 25 26 27 28 29 30 31 32 33 34 35 36 37 38 39 40 41 42 43 44 45 46 47 48 49 50
000
ASUS43 KMPX 271701
RWRMN
WEATHER ROUNDUP FOR MINNESOTA
NATIONAL WEATHER SERVICE TWIN CITIES/CHANHASSEN MN
1200 PM CDT WED AUG 27 2014


NOTE: "FAIR" INDICATES FEW OR NO CLOUDS BELOW 12,000 FEET WITH NO
SIGNIFICANT WEATHER AND/OR OBSTRUCTIONS TO VISIBILITY. N/A MEANS
CURRENT SKY AND/OR WEATHER CONDITIONS ARE NOT AVAILABLE.

MNZ060>063-068>070-271800-
   Twin Cities Metro

CITY           SKY/WX    TMP DP  RH WIND       PRES   REMARKS
TWIN CITIES    PTSUNNY   70  55  59 E6        30.23F
ST PAUL        MOSUNNY   69  55  60 S3        30.23F
CRYSTAL        MOSUNNY   72  54  53 CALM      30.21F
BLAINE         MOSUNNY   72  55  56 NE3       30.23F
LAKEVILLE      MOSUNNY   70  57  64 CALM      30.22F
EDEN PRAIRIE   MOSUNNY   72  55  55 SE5       30.22F
SOUTH ST PAUL  MOSUNNY   71  54  55 E5        30.22F
LAKE ELMO      FAIR      70  54  56 S5        30.24F
$$
MNZ001>005-007-008-013>017-022>024-027-028-271800-
   Northwest Minnesota

CITY           SKY/WX    TMP DP  RH WIND       PRES   REMARKS
BEMIDJI        MOSUNNY   66  53  63 S6        30.21S
HALLOCK        SUNNY     68  55  64 S7        30.16S
ROSEAU         SUNNY     66  54  63 CALM      30.18S
WARROAD        SUNNY     63  57  82 E3          N/A
THIEF RVR FALL SUNNY     68  52  56 CALM      30.19S
CROOKSTON      SUNNY     66  52  59 CALM      30.19S
FOSSTON        SUNNY     66  55  68 SW5       30.21S
DETROIT LAKES  PTSUNNY   66  54  63 SW5       30.23S
MOORHEAD       SUNNY     70  61  73 S5        30.20F
PARK RAPIDS    PTSUNNY   66  52  60 CALM      30.22S
MAHNOMEN       PTSUNNY   65  55  70 S5        30.21S
$$
MNZ006-009>011-018-025>026-271800-
   North Central Minnesota

CITY           SKY/WX    TMP DP  RH WIND       PRES   REMARKS
BAUDETTE       SUNNY     65  55  70 MISG      30.19S
FLAG ISLAND    SUNNY     63  55  77 S6        30.16S
INTL FALLS     PTSUNNY   65  51  60 VRB3      30.19S
WASKISH        SUNNY     66  57  72 W8        30.19S
BIG FORK       PTSUNNY   66  52  59 SW5       30.21S
LONGVILLE      MOSUNNY   68  55  64 SE3       30.21F
GRAND RAPIDS   MOSUNNY   64  46  52 SW3       30.23S
CRANE LAKE     PTSUNNY   63  46  55 NW3       30.22S
ORR            PTSUNNY   63  46  55 CALM      30.19R
COOK           MOSUNNY   63  48  59 CALM      30.22S
WALKER         CLOUDY    65  53  67 CALM      30.21S
$$
MNZ012-019>021-037-271800-
   Northeast Minnesota

CITY           SKY/WX    TMP DP  RH WIND       PRES   REMARKS
DULUTH         MOSUNNY   66  48  52 N8        30.22S
ELY            PTSUNNY   61  45  55 CALM      30.21S
HIBBING        PTSUNNY   66  48  52 W7        30.22S
EVELETH        PTSUNNY   63  46  55 CALM      30.23R
DULUTH HARBOR  SUNNY     66  55  68 E6        30.23S
TWO HARBORS    MOSUNNY   64  48  55 N6        30.20S
SILVER BAY     SUNNY     61  50  67 CALM      30.20S
GRAND MARAIS     N/A     62  52  69 S9        30.18F
G MARAIS ARPRT PTSUNNY   61  43  51 NW6       30.21S
$$
MNZ029>031-032-039>041-046>048-054>057-064-271800-
   West Central Minnesota

CITY           SKY/WX    TMP DP  RH WIND       PRES   REMARKS
FERGUS FALLS   PTSUNNY   66  54  63 SE6       30.21S
WHEATON        MOSUNNY   66  57  72 SE8       30.22S
MORRIS         SUNNY     72  57  60 S9        30.21S
ALEXANDRIA     PTSUNNY   67  57  70 SE6       30.24R
ELBOW LAKE     FAIR      67  56  67 SE7       30.21S
WADENA         CLOUDY    64  55  72 CALM      30.22S
GLENWOOD       MOSUNNY   70  57  64 SE8       30.23S
APPLETON       MOSUNNY   72  57  60 S7        30.20F
BENSON         CLOUDY    70  59  68 SW9       30.22F
ORTONVILLE     PTSUNNY   70  57  64 SE6       30.20F
MADISON        MOSUNNY   72  61  68 S7        30.20F
WILLMAR        FAIR      72  57  60 S3        30.23F
$$
MNZ033>034-036-042>043-049>051-058-059-271800-
   Central Minnesota

CITY           SKY/WX    TMP DP  RH WIND       PRES   REMARKS
ST CLOUD       PTSUNNY   70  54  56 E6        30.23R
SAUK CENTRE    FAIR      68  55  63 S5        30.23F
PAYNESVILLE    MOSUNNY   66  55  67 E5        30.23F
AITKIN         CLOUDY    68  54  60 CALM      30.22R
PINE RIVER     CLOUDY    64  55  72 S5        30.25S
BRAINERD       CLOUDY    65  55  70 CALM      30.23S
STAPLES        CLOUDY    64  55  72 SE3       30.23S
LONG PRAIRIE   CLOUDY    64  54  68 E5        30.24R
LITTLE FALLS   CLOUDY    64  54  68 CALM      30.23S
LITCHFIELD     MOSUNNY   72  61  68 S3        30.23S
BUFFALO        MOSUNNY   70  54  56 CALM      30.24S
MAPLE LAKE     MOSUNNY   70  57  62 SE3       30.24F
$$
MNZ037-044-045-052-053-271800-
   East Central Minnesota

CITY           SKY/WX    TMP DP  RH WIND       PRES   REMARKS
PRINCETON      MOSUNNY   70  54  56 E3        30.24R
MORA           SUNNY     64  52  63 E3        30.25S
CAMBRIDGE      SUNNY     70  54  56 CALM      30.22S
RUSH CITY      MOSUNNY   67  53  61 CALM      30.24S
MOOSE LAKE     MOSUNNY   64  50  59 CALM      30.21S
HINCKLEY       PTSUNNY   68  54  60 E3        30.25R
CLOQUET        PTSUNNY   64  46  52 N3        30.23R
MCGREGOR       PTSUNNY   64  54  68 CALM      30.23S
$$
MNZ071>073-080-081-089-090-097-098-271800-
   Southwest Minnesota

CITY           SKY/WX    TMP DP  RH WIND       PRES   REMARKS
MONTEVIDEO     MOSUNNY   73  61  64 S5        30.22F
GRANITE FALLS  PTSUNNY   70  58  66 E8        30.22F
CANBY          PTSUNNY   69  60  73 SE8       30.22S
MARSHALL       CLOUDY    70  57  64 SE9       30.20S
REDWOOD FALLS  PTSUNNY   70  58  65 SE8       30.21F
OLIVIA         PTSUNNY   70  55  60 S6        30.21F
PIPESTONE      CLOUDY    70  61  73 S8        30.20F
WINDOM         CLOUDY    68  57  68 E6        30.22F
WORTHINGTON    CLOUDY    66  59  77 SE7       30.22F
JACKSON        CLOUDY    68  55  64 E5        30.22F
TRACY          CLOUDY    71  60  67 SE8       30.21F
SLAYTON        CLOUDY    68  59  73 CALM      30.22F
$$
MNZ065>067-074>077-082>085-091>093-271800-
   South Central Minnesota

CITY           SKY/WX    TMP DP  RH WIND       PRES   REMARKS
MANKATO        PTSUNNY   70  55  60 SE8       30.22F
NEW ULM        PTSUNNY   70  57  64 SE8       30.21F
ST JAMES       CLOUDY    72  57  60 E7        30.23F
FAIRMONT       CLOUDY    66  55  68 SE5       30.21F
GLENCOE        PTSUNNY   72  55  56 SE7       30.22S
FARIBAULT      PTSUNNY   73  52  46 E6        30.23F
OWATONNA       CLOUDY    72  57  60 SE5       30.22F
WASECA         CLOUDY    68  54  60 E5        30.24F
ALBERT LEA     CLOUDY    70  55  60 SE5       30.22F
$$
MNZ078>079-086>088-094>096-271800-
   Southeast Minnesota

CITY           SKY/WX    TMP DP  RH WIND       PRES   REMARKS
ROCHESTER      CLOUDY    69  57  65 E6        30.23F
RED WING       MOSUNNY   72  54  53 CALM      30.22S
STANTON        PTSUNNY   71  55  57 CALM      30.21F
DODGE CENTER   PTSUNNY   70  59  68 E5        30.23F
WINONA         PTSUNNY   72  57  60 NE3       30.22S HAZE
AUSTIN         CLOUDY    70  57  64 SE3       30.22S
PRESTON        PTSUNNY   67  61  79 CALM      30.23F
$$
ABBREVIATIONS USED IN REMARKS
   TC - TEMPERATURES IN CELSIUS
  WCI - WIND CHILL INDEX
   HX - HEAT INDEX
  VSB - VISIBILITY
$$


USA.gov is the U.S. government's official web portal to all federal, state and local government web resources and services.